BAW739 LSZH-EGLL

Flight info

Callsign BAW739
Flight time 1h 20m
Altitude 34000
Route VEBIT T10 TORPA DCT REKLA DCT RLP DCT ROTSI DCT KOTUN DCT NINAL DCT ABNUR DCT DIMAL DCT ALESO
Aircraft A321/M-SDE3FGHIRWY/LB1

Departure

Time 2026-04-26 14:37
Airport Zürich Airport (LSZH)

Arrival

Time 2026-04-26 15:58
Airport London Heathrow Airport (EGLL)
Time Latitude Longitude Altitude Speed Heading
2026-04-26 14:15 47.46069 8.55170 1397 ft 0 kts 65°
2026-04-26 14:29 47.46063 8.55152 1407 ft 3 kts 65°
2026-04-26 14:30 47.46055 8.55126 1406 ft 3 kts 83°
2026-04-26 14:30 47.46056 8.55096 1401 ft 3 kts 106°
2026-04-26 14:30 47.46062 8.55068 1401 ft 3 kts 118°
2026-04-26 14:30 47.46074 8.55044 1404 ft 3 kts 148°
2026-04-26 14:31 47.46078 8.55041 1404 ft 0 kts 148°
2026-04-26 14:33 47.46073 8.55046 1404 ft 3 kts 148°
2026-04-26 14:33 47.46033 8.55076 1399 ft 8 kts 154°
2026-04-26 14:33 47.45974 8.55117 1400 ft 11 kts 155°
2026-04-26 14:33 47.45909 8.55174 1404 ft 11 kts 130°
2026-04-26 14:34 47.45890 8.55289 1402 ft 14 kts 95°
2026-04-26 14:34 47.45880 8.55449 1397 ft 17 kts 96°
2026-04-26 14:34 47.45868 8.55612 1403 ft 15 kts 96°
2026-04-26 14:34 47.45857 8.55753 1399 ft 14 kts 96°
2026-04-26 14:35 47.45846 8.55905 1403 ft 17 kts 95°
2026-04-26 14:35 47.45836 8.56084 1402 ft 17 kts 96°
2026-04-26 14:35 47.45824 8.56258 1401 ft 19 kts 96°
2026-04-26 14:35 47.45807 8.56471 1398 ft 22 kts 97°
2026-04-26 14:36 47.45792 8.56698 1405 ft 22 kts 96°
2026-04-26 14:36 47.45776 8.56916 1403 ft 19 kts 95°
2026-04-26 14:36 47.45697 8.57029 1400 ft 17 kts 180°
2026-04-26 14:36 47.45669 8.56930 1399 ft 11 kts 275°
2026-04-26 14:37 47.45683 8.56703 1397 ft 52 kts 276°
2026-04-26 14:37 47.45748 8.55809 1406 ft 122 kts 276°
2026-04-26 14:37 47.45859 8.54274 1488 ft 170 kts 276°
2026-04-26 14:37 47.45998 8.52554 2278 ft 167 kts 278°
2026-04-26 14:38 47.46122 8.50839 3039 ft 168 kts 278°
2026-04-26 14:38 47.46243 8.49023 3377 ft 189 kts 274°
2026-04-26 14:38 47.45871 8.47079 3663 ft 211 kts 232°
2026-04-26 14:38 47.45154 8.46038 3775 ft 227 kts 220°
2026-04-26 14:39 47.43487 8.43779 4125 ft 261 kts 229°
2026-04-26 14:39 47.42300 8.41634 4546 ft 276 kts 233°
2026-04-26 14:39 47.41155 8.39314 5305 ft 280 kts 234°
2026-04-26 14:39 47.40029 8.36970 6130 ft 280 kts 234°
2026-04-26 14:40 47.38910 8.34621 6897 ft 279 kts 236°
2026-04-26 14:40 47.37852 8.32208 7604 ft 280 kts 239°
2026-04-26 14:40 47.36928 8.29665 8299 ft 282 kts 243°
2026-04-26 14:40 47.36070 8.27062 8994 ft 284 kts 244°
2026-04-26 14:41 47.35213 8.24428 9698 ft 285 kts 244°
2026-04-26 14:41 47.34339 8.21794 10335 ft 288 kts 244°
2026-04-26 14:41 47.33410 8.19065 10535 ft 309 kts 243°
2026-04-26 14:41 47.32398 8.16156 10654 ft 329 kts 243°
2026-04-26 14:42 47.31327 8.13121 10828 ft 346 kts 243°
2026-04-26 14:42 47.30203 8.09950 11291 ft 352 kts 243°
2026-04-26 14:42 47.29062 8.06742 11864 ft 355 kts 243°
2026-04-26 14:42 47.28006 8.03445 12454 ft 357 kts 251°
2026-04-26 14:43 47.27397 7.99901 13017 ft 359 kts 262°
2026-04-26 14:43 47.27308 7.96228 13588 ft 361 kts 275°
2026-04-26 14:43 47.27640 7.92557 14145 ft 363 kts 278°
2026-04-26 14:43 47.28005 7.88872 14661 ft 365 kts 278°
2026-04-26 14:44 47.28364 7.85161 15159 ft 367 kts 278°
2026-04-26 14:44 47.28602 7.82642 15501 ft 369 kts 278°
2026-04-26 14:44 47.28953 7.78893 16011 ft 371 kts 278°
2026-04-26 14:44 47.29307 7.75118 16525 ft 373 kts 278°
2026-04-26 14:45 47.29658 7.71366 17019 ft 375 kts 278°
2026-04-26 14:45 47.29898 7.68788 17353 ft 377 kts 278°
2026-04-26 14:45 47.30390 7.63706 17984 ft 380 kts 281°
2026-04-26 14:45 47.31090 7.59943 18427 ft 383 kts 288°
2026-04-26 14:46 47.31910 7.56203 18844 ft 384 kts 288°
2026-04-26 14:46 47.32732 7.52445 19254 ft 386 kts 288°
2026-04-26 14:46 47.33557 7.48663 19656 ft 388 kts 288°
2026-04-26 14:46 47.34385 7.44865 20056 ft 390 kts 288°
2026-04-26 14:47 47.35217 7.41042 20466 ft 392 kts 288°
2026-04-26 14:47 47.36047 7.37201 20874 ft 394 kts 288°
2026-04-26 14:47 47.36876 7.33336 21272 ft 396 kts 288°
2026-04-26 14:47 47.37708 7.29449 21650 ft 399 kts 287°
2026-04-26 14:48 47.38546 7.25535 22035 ft 401 kts 288°
2026-04-26 14:48 47.39388 7.21598 22425 ft 403 kts 288°
2026-04-26 14:48 47.40233 7.17653 22803 ft 405 kts 288°
2026-04-26 14:48 47.40988 7.13632 23170 ft 407 kts 283°
2026-04-26 14:49 47.41596 7.09537 23541 ft 410 kts 283°
2026-04-26 14:49 47.42204 7.05418 23874 ft 412 kts 283°
2026-04-26 14:49 47.42812 7.01278 24169 ft 414 kts 283°
2026-04-26 14:49 47.43423 6.97112 24475 ft 415 kts 283°
2026-04-26 14:50 47.44032 6.92933 24790 ft 417 kts 283°
2026-04-26 14:50 47.44644 6.88734 25089 ft 419 kts 283°
2026-04-26 14:50 47.45247 6.84574 25387 ft 421 kts 283°
2026-04-26 14:50 47.45859 6.80334 25698 ft 422 kts 283°
2026-04-26 14:51 47.46471 6.76087 26000 ft 424 kts 283°
2026-04-26 14:51 47.47085 6.71812 26301 ft 426 kts 283°
2026-04-26 14:51 47.47698 6.67532 26602 ft 427 kts 283°
2026-04-26 14:51 47.48139 6.63172 26878 ft 430 kts 278°
2026-04-26 14:52 47.48458 6.58771 27163 ft 432 kts 278°
2026-04-26 14:52 47.48778 6.54340 27456 ft 433 kts 278°
2026-04-26 14:52 47.49098 6.49905 27735 ft 435 kts 278°
2026-04-26 14:52 47.49418 6.45454 28021 ft 436 kts 278°
2026-04-26 14:53 47.49738 6.40980 28288 ft 438 kts 278°
2026-04-26 14:53 47.50056 6.36491 28546 ft 439 kts 277°
2026-04-26 14:53 47.50373 6.31992 28790 ft 441 kts 277°
2026-04-26 14:53 47.50689 6.27483 29003 ft 442 kts 277°
2026-04-26 14:54 47.51005 6.22944 29234 ft 443 kts 277°
2026-04-26 14:54 47.51316 6.18404 29550 ft 442 kts 277°
2026-04-26 14:54 47.51622 6.13883 29878 ft 441 kts 277°
2026-04-26 14:54 47.51927 6.09376 30201 ft 440 kts 277°
2026-04-26 14:55 47.52233 6.04878 30471 ft 439 kts 277°
2026-04-26 14:55 47.52536 6.00381 30744 ft 438 kts 277°
2026-04-26 14:55 47.52831 5.95959 30994 ft 438 kts 277°
2026-04-26 14:55 47.53203 5.91498 31239 ft 436 kts 283°
2026-04-26 14:56 47.54022 5.87200 31482 ft 433 kts 292°
2026-04-26 14:56 47.55318 5.83194 31727 ft 431 kts 302°
2026-04-26 14:56 47.57032 5.79573 31978 ft 429 kts 310°
2026-04-26 14:56 47.59034 5.76299 32230 ft 428 kts 313°
2026-04-26 14:57 47.61048 5.73060 32498 ft 427 kts 313°
2026-04-26 14:57 47.63050 5.69827 32770 ft 426 kts 313°
2026-04-26 14:57 47.65047 5.66591 33033 ft 424 kts 313°
2026-04-26 14:57 47.67038 5.63361 33291 ft 423 kts 313°
2026-04-26 14:58 47.69024 5.60140 33572 ft 422 kts 313°
2026-04-26 14:58 47.71001 5.56939 33846 ft 420 kts 313°
2026-04-26 14:58 47.72975 5.53740 34098 ft 420 kts 313°
2026-04-26 14:59 47.76908 5.47359 34172 ft 416 kts 314°
2026-04-26 14:59 47.80811 5.41012 34188 ft 415 kts 313°
2026-04-26 15:00 47.84699 5.34660 34181 ft 415 kts 313°
2026-04-26 15:00 47.88578 5.28298 34189 ft 415 kts 313°
2026-04-26 15:01 47.92450 5.21937 34191 ft 414 kts 314°
2026-04-26 15:01 47.96300 5.15607 34197 ft 415 kts 314°
2026-04-26 15:02 48.00170 5.09226 34196 ft 415 kts 313°
2026-04-26 15:02 48.04040 5.02833 34205 ft 414 kts 313°
2026-04-26 15:03 48.07902 4.96436 34213 ft 415 kts 313°
2026-04-26 15:03 48.11764 4.90023 34214 ft 415 kts 313°
2026-04-26 15:04 48.15615 4.83598 34214 ft 415 kts 313°
2026-04-26 15:04 48.19466 4.77169 34215 ft 415 kts 313°
2026-04-26 15:05 48.23320 4.70741 34221 ft 414 kts 313°
2026-04-26 15:05 48.27161 4.64300 34221 ft 414 kts 313°
2026-04-26 15:06 48.30980 4.57875 34225 ft 414 kts 313°
2026-04-26 15:06 48.34815 4.51407 34225 ft 414 kts 313°
2026-04-26 15:07 48.40557 4.41703 34228 ft 414 kts 313°
2026-04-26 15:07 48.44380 4.35222 34234 ft 414 kts 312°
2026-04-26 15:08 48.48191 4.28732 34234 ft 414 kts 312°
2026-04-26 15:08 48.51976 4.22278 34239 ft 413 kts 312°
2026-04-26 15:09 48.55785 4.15770 34239 ft 413 kts 312°
2026-04-26 15:09 48.59585 4.09261 34241 ft 413 kts 312°
2026-04-26 15:10 48.62765 4.03802 34241 ft 413 kts 312°
2026-04-26 15:10 48.67171 3.96223 34242 ft 413 kts 312°
2026-04-26 15:11 48.70956 3.89694 34244 ft 412 kts 311°
2026-04-26 15:11 48.74824 3.83286 34248 ft 412 kts 315°
2026-04-26 15:12 48.78938 3.77243 34247 ft 411 kts 316°
2026-04-26 15:12 48.83086 3.71265 34248 ft 411 kts 316°
2026-04-26 15:13 48.87164 3.65255 34245 ft 411 kts 315°
2026-04-26 15:13 48.91233 3.59143 34251 ft 411 kts 315°
2026-04-26 15:14 48.95289 3.53024 34249 ft 411 kts 315°
2026-04-26 15:14 48.99354 3.46910 34254 ft 411 kts 315°
2026-04-26 15:15 49.03413 3.40791 34255 ft 410 kts 314°
2026-04-26 15:15 49.07467 3.34670 34251 ft 410 kts 314°
2026-04-26 15:16 49.11514 3.28544 34252 ft 410 kts 314°
2026-04-26 15:16 49.15560 3.22389 34251 ft 410 kts 314°
2026-04-26 15:17 49.18916 3.17273 34252 ft 410 kts 314°
2026-04-26 15:17 49.23642 3.10064 34250 ft 410 kts 314°
2026-04-26 15:18 49.27683 3.03891 34250 ft 410 kts 314°
2026-04-26 15:18 49.31716 2.97699 34251 ft 411 kts 314°
2026-04-26 15:19 49.35749 2.91486 34248 ft 411 kts 314°
2026-04-26 15:19 49.39781 2.85265 34249 ft 411 kts 314°
2026-04-26 15:20 49.43821 2.79028 34253 ft 412 kts 313°
2026-04-26 15:20 49.47860 2.72771 34255 ft 412 kts 313°
2026-04-26 15:21 49.51867 2.66536 34256 ft 413 kts 313°
2026-04-26 15:21 49.55904 2.60243 34256 ft 413 kts 313°
2026-04-26 15:22 49.59952 2.53955 34256 ft 413 kts 315°
2026-04-26 15:22 49.64478 2.48433 34260 ft 415 kts 321°
2026-04-26 15:23 49.69087 2.43050 34264 ft 416 kts 321°
2026-04-26 15:23 49.73691 2.37632 34271 ft 416 kts 320°
2026-04-26 15:24 49.78293 2.32177 34273 ft 417 kts 320°
2026-04-26 15:24 49.82905 2.26732 34273 ft 417 kts 320°
2026-04-26 15:25 49.86745 2.22194 34276 ft 417 kts 320°
2026-04-26 15:25 49.92110 2.15831 34270 ft 418 kts 320°
2026-04-26 15:26 49.96729 2.10343 34272 ft 418 kts 320°
2026-04-26 15:26 50.01348 2.04827 34273 ft 419 kts 320°
2026-04-26 15:27 50.05966 1.99292 34276 ft 419 kts 320°
2026-04-26 15:27 50.10581 1.93751 34274 ft 419 kts 320°
2026-04-26 15:28 50.15200 1.88195 34273 ft 420 kts 320°
2026-04-26 15:28 50.19564 1.82195 34279 ft 418 kts 313°
2026-04-26 15:29 50.23728 1.75841 34280 ft 418 kts 313°
2026-04-26 15:30 50.32070 1.63107 34283 ft 419 kts 313°
2026-04-26 15:30 50.36235 1.56721 34287 ft 420 kts 313°
2026-04-26 15:31 50.38325 1.53511 34150 ft 420 kts 313°
2026-04-26 15:31 50.42537 1.47020 32444 ft 426 kts 313°
2026-04-26 15:31 50.44625 1.43800 31690 ft 427 kts 313°
2026-04-26 15:32 50.47458 1.39422 30810 ft 426 kts 313°
2026-04-26 15:32 50.50918 1.34001 29901 ft 419 kts 311°
2026-04-26 15:32 50.52902 1.30698 29378 ft 413 kts 310°
2026-04-26 15:33 50.54826 1.27388 28855 ft 408 kts 310°
2026-04-26 15:33 50.56715 1.24097 28323 ft 403 kts 310°
2026-04-26 15:33 50.58596 1.20855 27823 ft 399 kts 311°
2026-04-26 15:33 50.60509 1.17722 27316 ft 395 kts 312°
2026-04-26 15:34 50.62440 1.14682 26814 ft 391 kts 313°
2026-04-26 15:34 50.63722 1.12700 26488 ft 389 kts 313°
2026-04-26 15:34 50.65645 1.09732 26009 ft 385 kts 313°
2026-04-26 15:34 50.67546 1.06780 25523 ft 382 kts 313°
2026-04-26 15:35 50.69422 1.03837 25054 ft 379 kts 312°
2026-04-26 15:35 50.71280 1.00897 24594 ft 377 kts 312°
2026-04-26 15:35 50.73117 0.97972 24139 ft 374 kts 312°
2026-04-26 15:35 50.74938 0.95061 23676 ft 371 kts 312°
2026-04-26 15:36 50.76742 0.92177 23215 ft 366 kts 312°
2026-04-26 15:36 50.78525 0.89336 22802 ft 362 kts 312°
2026-04-26 15:36 50.80296 0.86512 22385 ft 361 kts 312°
2026-04-26 15:36 50.82056 0.83698 21979 ft 359 kts 312°
2026-04-26 15:37 50.83805 0.80901 21572 ft 357 kts 312°
2026-04-26 15:37 50.85547 0.78110 21169 ft 355 kts 312°
2026-04-26 15:37 50.87276 0.75335 20750 ft 353 kts 312°
2026-04-26 15:37 50.88996 0.72572 20332 ft 351 kts 312°
2026-04-26 15:38 50.90706 0.69822 19907 ft 350 kts 312°
2026-04-26 15:38 50.92407 0.67079 19477 ft 348 kts 312°
2026-04-26 15:38 50.94075 0.64387 19059 ft 346 kts 312°
2026-04-26 15:38 50.95760 0.61667 18610 ft 345 kts 312°
2026-04-26 15:39 50.97434 0.58969 18096 ft 343 kts 312°
2026-04-26 15:39 50.99148 0.56205 17276 ft 357 kts 312°
2026-04-26 15:39 51.00900 0.53379 16534 ft 361 kts 312°
2026-04-26 15:39 51.02092 0.51452 16048 ft 362 kts 312°
2026-04-26 15:40 51.04437 0.47644 15079 ft 366 kts 313°
2026-04-26 15:40 51.06228 0.44735 14334 ft 369 kts 313°
2026-04-26 15:40 51.08032 0.41843 13697 ft 367 kts 314°
2026-04-26 15:40 51.09854 0.39028 13103 ft 363 kts 315°
2026-04-26 15:41 51.11679 0.36266 12492 ft 360 kts 315°
2026-04-26 15:41 51.13470 0.33571 12263 ft 347 kts 315°
2026-04-26 15:41 51.15181 0.30989 12135 ft 331 kts 315°
2026-04-26 15:41 51.16810 0.28517 12004 ft 316 kts 315°
2026-04-26 15:42 51.18366 0.26149 11864 ft 304 kts 314°
2026-04-26 15:42 51.19876 0.23846 11564 ft 298 kts 314°
2026-04-26 15:42 51.21362 0.21568 11192 ft 295 kts 314°
2026-04-26 15:42 51.22837 0.19302 10865 ft 293 kts 314°
2026-04-26 15:43 51.24303 0.17046 10483 ft 292 kts 314°
2026-04-26 15:43 51.25742 0.14829 10084 ft 288 kts 314°
2026-04-26 15:43 51.28505 0.10570 8948 ft 270 kts 315°
2026-04-26 15:44 51.29848 0.08500 8260 ft 268 kts 315°
2026-04-26 15:44 51.31131 0.06637 8204 ft 236 kts 320°
2026-04-26 15:44 51.32451 0.04778 8202 ft 278 kts 307°
2026-04-26 15:45 51.33446 -0.01579 7786 ft 306 kts 271°
2026-04-26 15:45 51.33566 -0.04917 7614 ft 294 kts 274°
2026-04-26 15:46 51.33984 -0.11151 7362 ft 270 kts 276°
2026-04-26 15:46 51.34203 -0.14063 7290 ft 257 kts 276°
2026-04-26 15:46 51.34410 -0.16818 7297 ft 244 kts 276°
2026-04-26 15:46 51.34546 -0.18603 7297 ft 244 kts 276°
2026-04-26 15:47 51.34819 -0.22211 7298 ft 244 kts 276°
2026-04-26 15:47 51.35229 -0.27611 7298 ft 244 kts 276°
2026-04-26 15:47 51.35432 -0.30305 7301 ft 244 kts 276°
2026-04-26 15:48 51.35636 -0.33008 7300 ft 244 kts 276°
2026-04-26 15:48 51.35840 -0.35710 7299 ft 244 kts 276°
2026-04-26 15:48 51.36042 -0.38373 7300 ft 244 kts 276°
2026-04-26 15:48 51.36247 -0.41074 7300 ft 244 kts 276°
2026-04-26 15:49 51.36453 -0.43770 7301 ft 244 kts 276°
2026-04-26 15:49 51.36660 -0.46469 7300 ft 244 kts 276°
2026-04-26 15:49 51.36867 -0.49167 7300 ft 244 kts 276°
2026-04-26 15:49 51.37070 -0.51839 7263 ft 246 kts 276°
2026-04-26 15:50 51.37279 -0.54557 6960 ft 245 kts 276°
2026-04-26 15:50 51.37487 -0.57263 6643 ft 244 kts 276°
2026-04-26 15:50 51.37692 -0.59959 6308 ft 244 kts 276°
2026-04-26 15:50 51.37894 -0.62651 5970 ft 242 kts 276°
2026-04-26 15:51 51.38091 -0.65322 5616 ft 241 kts 276°
2026-04-26 15:51 51.38285 -0.67984 5287 ft 240 kts 276°
2026-04-26 15:51 51.38475 -0.70629 4959 ft 239 kts 276°
2026-04-26 15:51 51.38666 -0.73273 4619 ft 238 kts 276°
2026-04-26 15:52 51.38856 -0.75905 4284 ft 238 kts 276°
2026-04-26 15:52 51.39046 -0.78534 4023 ft 236 kts 277°
2026-04-26 15:52 51.39505 -0.81022 3984 ft 235 kts 304°
2026-04-26 15:52 51.40204 -0.82366 3886 ft 239 kts 319°
2026-04-26 15:53 51.42202 -0.83620 3546 ft 232 kts
2026-04-26 15:53 51.43707 -0.82896 3295 ft 224 kts 34°
2026-04-26 15:53 51.44951 -0.81427 3050 ft 219 kts 39°
2026-04-26 15:53 51.46111 -0.79909 2984 ft 213 kts 41°
2026-04-26 15:54 51.47083 -0.78147 2985 ft 209 kts 61°
2026-04-26 15:54 51.47566 -0.75984 3006 ft 206 kts 83°
2026-04-26 15:54 51.47618 -0.73731 3014 ft 198 kts 90°
2026-04-26 15:54 51.47631 -0.71537 2910 ft 195 kts 90°
2026-04-26 15:55 51.47644 -0.69393 2675 ft 190 kts 90°
2026-04-26 15:55 51.47656 -0.67286 2430 ft 187 kts 90°
2026-04-26 15:55 51.47668 -0.65222 2193 ft 184 kts 91°
2026-04-26 15:55 51.47679 -0.63185 1939 ft 181 kts 91°
2026-04-26 15:56 51.47689 -0.61169 1692 ft 179 kts 90°
2026-04-26 15:56 51.47699 -0.59191 1462 ft 175 kts 91°
2026-04-26 15:56 51.47709 -0.57265 1231 ft 171 kts 89°
2026-04-26 15:56 51.47718 -0.55394 985 ft 169 kts 90°
2026-04-26 15:57 51.47726 -0.53550 772 ft 159 kts 89°
2026-04-26 15:57 51.47734 -0.51835 543 ft 149 kts 89°
2026-04-26 15:57 51.47740 -0.50200 295 ft 145 kts 89°
2026-04-26 15:57 51.47746 -0.49140 190 ft 144 kts 88°
2026-04-26 15:58 51.47758 -0.47075 91 ft 115 kts 91°
2026-04-26 15:58 51.47757 -0.46287 90 ft 28 kts 96°
2026-04-26 15:58 51.47660 -0.46099 90 ft 14 kts 144°
2026-04-26 15:58 51.47594 -0.46137 87 ft 12 kts 258°
2026-04-26 15:59 51.47593 -0.46278 87 ft 13 kts 270°
2026-04-26 15:59 51.47593 -0.46432 87 ft 14 kts 270°
2026-04-26 15:59 51.47592 -0.46597 87 ft 15 kts 268°
2026-04-26 15:59 51.47590 -0.46775 87 ft 17 kts 269°
2026-04-26 16:00 51.47583 -0.46967 90 ft 18 kts 268°
2026-04-26 16:00 51.47582 -0.47171 91 ft 19 kts 270°
2026-04-26 16:00 51.47582 -0.47388 90 ft 20 kts 270°
2026-04-26 16:00 51.47580 -0.47616 90 ft 21 kts 270°
2026-04-26 16:01 51.47580 -0.47853 90 ft 22 kts 270°
2026-04-26 16:01 51.47579 -0.48100 90 ft 23 kts 269°
2026-04-26 16:01 51.47564 -0.48333 91 ft 17 kts 230°
2026-04-26 16:01 51.47460 -0.48363 87 ft 14 kts 179°
2026-04-26 16:02 51.47371 -0.48362 87 ft 10 kts 179°
2026-04-26 16:02 51.47348 -0.48362 87 ft 0 kts 180°
2026-04-26 16:02 51.47332 -0.48362 87 ft 6 kts 180°
2026-04-26 16:02 51.47293 -0.48362 87 ft 11 kts 179°
2026-04-26 16:03 51.47172 -0.48361 87 ft 14 kts 180°
2026-04-26 16:03 51.47071 -0.48360 87 ft 15 kts 180°
2026-04-26 16:03 51.46964 -0.48359 87 ft 16 kts 179°
2026-04-26 16:03 51.46879 -0.48432 88 ft 16 kts 258°
2026-04-26 16:04 51.46878 -0.48608 87 ft 10 kts 270°
2026-04-26 16:04 51.46909 -0.48650 88 ft 5 kts 354°
2026-04-26 16:04 51.46926 -0.48650 89 ft 0 kts 360°